H1 CPF 2 NER 2022 11 19 9 323 01 glonass138 H2 1805301 9138 43508 2022 11 19 0 0 0 2022 11 22 23 45 0 900 1 1 0 0 0 1 H9 10 0 59902 0.00000 0 6295555.755 -10079561.567 -22562007.497 10 0 59902 900.00000 0 7778023.746 -7684886.227 -23039747.767 10 0 59902 1800.00000 0 9451413.811 -5381159.775 -23069781.188 10 0 59902 2700.00000 0 11274691.183 -3225722.213 -22651643.352 10 0 59902 3600.00000 0 13197573.533 -1267641.771 -21793571.563 10 0 59902 4500.00000 0 15162500.012 454111.175 -20512336.406 10 0 59902 5400.00000 0 17106920.487 1912056.076 -18832908.952 10 0 59902 6300.00000 0 18965809.647 3091103.854 -16787970.421 10 0 59902 7200.00000 0 20674301.271 3988932.458 -14417274.008 10 0 59902 8100.00000 0 22170333.112 4615822.592 -11766871.296 10 0 59902 9000.00000 0 23397192.300 4993962.336 -8888218.112 10 0 59902 9900.00000 0 24305855.257 5156251.414 -5837177.096 10 0 59902 10800.00000 0 24857024.752 5144656.750 -2672936.105 10 0 59902 11700.00000 0 25022779.148 5008189.569 543136.819 10 0 59902 12600.00000 0 24787765.105 4800590.010 3748679.773 10 0 59902 13500.00000 0 24149883.969 4577817.426 6881541.879 10 0 59902 14400.00000 0 23120443.112 4395452.512 9880983.563 10 0 59902 15300.00000 0 21723765.774 4306121.042 12688849.152 10 0 59902 16200.00000 0 19996275.454 4357047.991 15250689.386 10 0 59902 17100.00000 0 17985092.602 4587845.315 17516812.515 10 0 59902 18000.00000 0 15746201.653 5028626.855 19443243.942 10 0 59902 18900.00000 0 13342264.092 5698530.137 20992576.354 10 0 59902 19800.00000 0 10840167.743 6604707.977 22134694.308 10 0 59902 20700.00000 0 8308413.473 7741833.194 22847359.525 10 0 59902 21600.00000 0 5814447.006 9092138.495 23116645.808 10 0 59902 22500.00000 0 3422045.840 10625991.413 22937215.110 10 0 59902 23400.00000 0 1188869.132 12302981.826 22312429.125 10 0 59902 24300.00000 0 -835728.327 14073478.303 21254293.715 10 0 59902 25200.00000 0 -2612527.690 15880589.792 19783236.448 10 0 59902 26100.00000 0 -4113847.252 17662451.937 17927720.640 10 0 59902 27000.00000 0 -5324455.223 19354743.428 15723702.326 10 0 59902 27900.00000 0 -6241956.181 20893327.648 13213939.692 10 0 59902 28800.00000 0 -6876635.286 22216909.038 10447167.551 10 0 59902 29700.00000 0 -7250767.169 23269592.465 7477152.301 10 0 59902 30600.00000 0 -7397419.077 24003237.454 4361645.421 10 0 59902 31500.00000 0 -7358799.341 24379507.322 1161256.077 10 0 59902 32400.00000 0 -7184221.837 24371525.905 -2061734.799 10 0 59902 33300.00000 0 -6927773.583 23965071.024 -5244595.086 10 0 59902 34200.00000 0 -6645785.418 23159253.408 -8325371.815 10 0 59902 35100.00000 0 -6394214.260 21966651.749 -11244106.287 10 0 59902 36000.00000 0 -6226049.196 20412897.706 -13944009.172 10 0 59902 36900.00000 0 -6188852.497 18535728.141 -16372571.779 10 0 59902 37800.00000 0 -6322540.786 16383544.522 -18482591.186 10 0 59902 38700.00000 0 -6657501.076 14013540.150 -20233089.010 10 0 59902 39600.00000 0 -7213121.873 11489474.113 -21590105.877 10 0 59902 40500.00000 0 -7996801.728 8879185.366 -22527356.518 10 0 59902 41400.00000 0 -9003477.193 6251950.916 -23026733.402 10 0 59902 42300.00000 0 -10215690.038 3675798.304 -23078649.829 10 0 59902 43200.00000 0 -11604190.892 1214883.888 -22682216.769 10 0 59902 44100.00000 0 -13129053.898 -1072954.680 -21845250.792 10 0 59902 45000.00000 0 -14741255.601 -3138370.995 -20584113.717 10 0 59902 45900.00000 0 -16384651.990 -4942318.522 -18923387.644 10 0 59902 46800.00000 0 -17998271.051 -6457421.687 -16895392.055 10 0 59902 47700.00000 0 -19518825.043 -7668854.126 -14539552.565 10 0 59902 48600.00000 0 -20883337.649 -8574689.389 -11901633.601 10 0 59902 49500.00000 0 -22031776.314 -9185711.368 -9032849.759 10 0 59902 50400.00000 0 -22909579.844 -9524694.113 -5988872.993 10 0 59902 51300.00000 0 -23469975.671 -9625182.843 -2828754.672 10 0 59902 52200.00000 0 -23675989.930 -9529828.651 386216.827 10 0 59902 53100.00000 0 -23502066.209 -9288347.937 3593700.925 10 0 59902 54000.00000 0 -22935225.159 -8955193.246 6731509.305 10 0 59902 54900.00000 0 -21975716.238 -8587034.085 9738806.904 10 0 59902 55800.00000 0 -20637134.029 -8240154.169 12557286.325 10 0 59902 56700.00000 0 -18945993.770 -7967874.927 15132293.236 10 0 59902 57600.00000 0 -16940783.227 -7818113.865 17413881.365 10 0 59902 58500.00000 0 -14670529.693 -7831180.722 19357777.005 10 0 59902 59400.00000 0 -12192940.955 -8037904.329 20926234.857 10 0 59902 60300.00000 0 -9572196.548 -8458169.326 22088769.080 10 0 59902 61200.00000 0 -6876480.147 -9099924.828 22822745.707 10 0 59902 62100.00000 0 -4175354.498 -9958707.487 23113825.163 10 0 59902 63000.00000 0 -1537086.819 -11017700.178 22956246.319 10 0 59902 63900.00000 0 973965.178 -12248325.096 22352946.275 10 0 59902 64800.00000 0 3299798.968 -13611347.945 21315513.025 10 0 59902 65700.00000 0 5390943.659 -15058448.425 19863971.154 10 0 59902 66600.00000 0 7208277.105 -16534192.520 18026403.749 10 0 59902 67500.00000 0 8724408.409 -17978325.040 15838416.841 10 0 59902 68400.00000 0 9924568.371 -19328286.987 13342455.740 10 0 59902 69300.00000 0 10806970.872 -20521852.342 10586985.705 10 0 59902 70200.00000 0 11382630.335 -21499773.348 7625552.265 10 0 59902 71100.00000 0 11674643.356 -22208322.459 4515739.140 10 0 59902 72000.00000 0 11716965.259 -22601623.005 1318044.220 10 0 59902 72900.00000 0 11552734.000 -22643669.226 -1905304.114 10 0 59902 73800.00000 0 11232213.161 -22309949.280 -5091566.494 10 0 59902 74700.00000 0 10810442.201 -21588601.564 -8178723.066 10 0 59902 75600.00000 0 10344694.687 -20481054.525 -11106689.964 10 0 59902 76500.00000 0 9891853.430 -19002122.155 -13818496.959 10 0 59902 77400.00000 0 9505814.911 -17179550.628 -16261402.374 10 0 59902 78300.00000 0 9235033.908 -15053034.829 -18387922.907 10 0 59902 79200.00000 0 9120313.048 -12672746.004 -20156757.994 10 0 59902 80100.00000 0 9192931.218 -10097432.386 -21533590.670 10 0 59902 81000.00000 0 9473190.128 -7392172.386 -22491749.723 10 0 59902 81900.00000 0 9969440.313 -4625874.244 -23012720.892 10 0 59902 82800.00000 0 10677627.405 -1868626.392 -23086497.910 10 0 59902 83700.00000 0 11581377.419 810991.453 -22711767.476 10 0 59902 84600.00000 0 12652617.174 3348525.263 -21895925.406 10 0 59902 85500.00000 0 13852703.374 5686083.751 -20654924.369 10 0 59903 0.00000 0 15134012.660 7774495.281 -19012956.939 10 0 59903 900.00000 0 16441926.474 9575097.513 -17001979.513 10 0 59903 1800.00000 0 17717125.696 11061084.180 -14661088.878 10 0 59903 2700.00000 0 18898101.217 12218358.463 -12035760.579 10 0 59903 3600.00000 0 19923773.580 13045856.343 -9176965.927 10 0 59903 4500.00000 0 20736112.633 13555329.332 -6140183.816 10 0 59903 5400.00000 0 21282647.346 13770597.166 -2984326.481 10 0 59903 6300.00000 0 21518760.609 13726303.225 229400.218 10 0 59903 7200.00000 0 21409672.713 13466226.094 3438680.000 10 0 59903 8100.00000 0 20932030.248 13041219.170 6581290.107 10 0 59903 9000.00000 0 20075033.506 12506865.614 9596302.933 10 0 59903 9900.00000 0 18841054.744 11920947.704 12425262.160 10 0 59903 10800.00000 0 17245720.829 11340837.319 15013311.008 10 0 59903 11700.00000 0 15317455.984 10820917.402 17310251.094 10 0 59903 12600.00000 0 13096502.808 10410142.871 19271511.776 10 0 59903 13500.00000 0 10633461.283 10149843.545 20859011.688 10 0 59903 14400.00000 0 7987405.325 10071861.483 22041896.248 10 0 59903 15300.00000 0 5223654.004 10197101.230 22797137.147 10 0 59903 16200.00000 0 2411288.702 10534554.296 23109982.445 10 0 59903 17100.00000 0 -379482.035 11080839.476 22974248.564 10 0 59903 18000.00000 0 -3080001.633 11820279.259 22392448.209 10 0 59903 18900.00000 0 -5625778.447 12725510.201 21375751.262 10 0 59903 19800.00000 0 -7958924.910 13758602.890 19943778.605 10 0 59903 20700.00000 0 -10030321.935 14872645.673 18124231.931 10 0 59903 21600.00000 0 -11801418.994 16013726.714 15952365.704 10 0 59903 22500.00000 0 -13245595.054 17123231.869 13470310.455 10 0 59903 23400.00000 0 -14349023.625 18140362.180 10726259.730 10 0 59903 24300.00000 0 -15111005.909 19004765.001 7773535.857 10 0 59903 25200.00000 0 -15543758.309 19659167.507 4669552.348 10 0 59903 26100.00000 0 -15671663.570 20051900.679 1474693.288 10 0 59903 27000.00000 0 -15530017.734 20139206.185 -1748868.052 10 0 59903 27900.00000 0 -15163326.575 19887227.441 -4938387.648 10 0 59903 28800.00000 0 -14623224.485 19273599.454 -8031781.349 10 0 59903 29700.00000 0 -13966105.021 18288569.043 -10968842.674 10 0 59903 30600.00000 0 -13250564.576 16935597.062 -13692422.968 10 0 59903 31500.00000 0 -12534768.543 15231416.406 -16149549.921 10 0 59903 32400.00000 0 -11873852.455 13205542.721 -18292462.025 10 0 59903 33300.00000 0 -11317468.789 10899257.982 -20079538.514 10 0 59903 34200.00000 0 -10907583.596 8364109.458 -21476106.583 10 0 59903 35100.00000 0 -10676616.142 5659986.796 -22455110.592 10 0 59903 36000.00000 0 -10645999.886 2852857.480 -22997630.802 10 0 59903 36900.00000 0 -10825225.003 12255.103 -23093242.329 10 0 59903 37800.00000 0 -11211402.180 -2791375.282 -22740208.243 10 0 59903 38700.00000 0 -11789365.332 -5489364.802 -21945503.865 10 0 59903 39600.00000 0 -12532308.229 -8017430.361 -20724672.594 10 0 59903 40500.00000 0 -13402927.660 -10318098.789 -19101516.615 10 0 59903 41400.00000 0 -14355024.617 -12342846.095 -17107628.903 10 0 59903 42300.00000 0 -15335495.881 -14053864.228 -14781775.845 10 0 59903 43200.00000 0 -16286632.167 -15425383.488 -12169142.481 10 0 59903 44100.00000 0 -17148626.194 -16444497.133 -9320454.928 10 0 59903 45000.00000 0 -17862185.305 -17111455.416 -6290996.897 10 0 59903 45900.00000 0 -18371138.884 -17439418.374 -3139539.174 10 0 59903 46800.00000 0 -18624931.030 -17453679.189 72797.382 10 0 59903 47700.00000 0 -18580893.668 -17190391.856 3283723.414 10 0 59903 48600.00000 0 -18206204.507 -16694857.621 6430984.496 10 0 59903 49500.00000 0 -17479447.284 -16019442.848 9453563.353 10 0 59903 50400.00000 0 -16391708.406 -15221216.321 12292857.701 10 0 59903 51300.00000 0 -14947163.347 -14359405.521 14893811.255 10 0 59903 52200.00000 0 -13163127.352 -13492778.844 17205976.384 10 0 59903 53100.00000 0 -11069567.299 -12677063.680 19184488.179 10 0 59903 54000.00000 0 -8708093.808 -11962508.639 20790931.607 10 0 59903 54900.00000 0 -6130474.173 -11391692.121 21994085.385 10 0 59903 55800.00000 0 -3396726.560 -10997669.129 22770528.490 10 0 59903 56700.00000 0 -572873.129 -10802534.163 23105097.810 10 0 59903 57600.00000 0 2271556.105 -10816460.709 22991188.060 10 0 59903 58500.00000 0 5066166.382 -11037258.142 22430887.868 10 0 59903 59400.00000 0 7742379.789 -11450465.283 21434948.908 10 0 59903 60300.00000 0 10236044.989 -12029977.554 20022587.876 10 0 59903 61200.00000 0 12489867.260 -12739182.280 18221124.225 10 0 59903 62100.00000 0 14455558.241 -13532555.305 16065459.635 10 0 59903 63000.00000 0 16095616.057 -14357652.465 13597408.279 10 0 59903 63900.00000 0 17384661.494 -15157412.498 10864890.045 10 0 59903 64800.00000 0 18310274.411 -15872674.407 7921001.750 10 0 59903 65700.00000 0 18873295.337 -16444802.772 4822984.058 10 0 59903 66600.00000 0 19087579.734 -16818309.451 1631104.352 10 0 59903 67500.00000 0 18979215.604 -16943359.860 -1592522.304 10 0 59903 68400.00000 0 18585238.023 -16778056.634 -4785150.399 10 0 59903 69300.00000 0 17951895.626 -16290402.693 -7884634.641 10 0 59903 70200.00000 0 17132543.323 -15459859.388 -10830648.986 10 0 59903 71100.00000 0 16185251.380 -14278432.546 -13565869.227 10 0 59903 72000.00000 0 15170233.118 -12751239.528 -16037095.078 10 0 59903 72900.00000 0 14147200.970 -10896532.489 -18196289.229 10 0 59903 73800.00000 0 13172763.397 -8745176.187 -20001512.819 10 0 59903 74700.00000 0 12297973.100 -6339601.898 -21417738.986 10 0 59903 75600.00000 0 11566130.112 -3732280.935 -22417529.079 10 0 59903 76500.00000 0 11010932.146 -983781.395 -22981558.913 10 0 59903 77400.00000 0 10655049.566 1839510.884 -23098985.626 10 0 59903 78300.00000 0 10509184.125 4667912.519 -22767648.885 10 0 59903 79200.00000 0 10571650.087 7431099.481 -21994103.375 10 0 59903 80100.00000 0 10828494.267 10060790.787 -20793482.706 10 0 59903 81000.00000 0 11254148.954 12493348.293 -19189197.986 10 0 59903 81900.00000 0 11812589.306 14672185.622 -17212477.295 10 0 59903 82800.00000 0 12458945.876 16549887.219 -14901755.251 10 0 59903 83700.00000 0 13141503.855 18089950.751 -12301924.586 10 0 59903 84600.00000 0 13804004.593 19268081.785 -9463464.103 10 0 59903 85500.00000 0 14388152.341 20072988.141 -6441459.923 10 0 59904 0.00000 0 14836220.559 20506642.236 -3294539.022 10 0 59904 900.00000 0 15093648.252 20584001.982 -83733.846 10 0 59904 1800.00000 0 15111516.412 20332202.556 3128695.842 10 0 59904 2700.00000 0 14848801.028 19789254.749 6280466.926 10 0 59904 3600.00000 0 14274307.015 19002304.560 9310475.377 10 0 59904 4500.00000 0 13368201.613 18025527.880 12159975.731 10 0 59904 5400.00000 0 12123082.212 16917748.869 14773714.804 10 0 59904 6300.00000 0 10544532.930 15739882.011 17100998.100 10 0 59904 7200.00000 0 8651145.570 14552305.070 19096668.605 10 0 59904 8100.00000 0 6474002.753 13412272.890 20721979.512 10 0 59904 9000.00000 0 4055643.208 12371480.130 21945344.450 10 0 59904 9900.00000 0 1448550.798 11473874.801 22742950.984 10 0 59904 10800.00000 0 -1286771.635 10753813.996 23099225.766 10 0 59904 11700.00000 0 -4084065.250 10234638.938 23007142.337 10 0 59904 12600.00000 0 -6873822.515 9927729.204 22468365.328 10 0 59904 13500.00000 0 -9585936.189 9832075.982 21493227.792 10 0 59904 14400.00000 0 -12152381.087 9934392.713 20100541.335 10 0 59904 15300.00000 0 -14509817.989 10209759.039 18317241.770 10 0 59904 16200.00000 0 -16602011.886 10622771.568 16177876.156 10 0 59904 17100.00000 0 -18381964.112 11129153.558 13723940.102 10 0 59904 18000.00000 0 -19813669.300 11677756.071 11003077.363 10 0 59904 18900.00000 0 -20873423.607 12212866.267 8068156.604 10 0 59904 19800.00000 0 -21550629.237 12676725.130 4976242.932 10 0 59904 20700.00000 0 -21848061.326 13012147.606 1787484.314 10 0 59904 21600.00000 0 -21781586.039 13165133.384 -1436065.053 10 0 59904 22500.00000 0 -21379342.022 13087356.633 -4631660.768 10 0 59904 23400.00000 0 -20680420.228 12738427.908 -7737098.903 10 0 59904 24300.00000 0 -19733098.630 12087831.091 -10691936.271 10 0 59904 25200.00000 0 -18592707.275 11116452.001 -13438675.409 10 0 59904 26100.00000 0 -17319214.884 9817632.863 -15923890.195 10 0 59904 27000.00000 0 -15974639.891 8197707.038 -18099269.446 10 0 59904 27900.00000 0 -14620395.978 6275990.635 -19922557.890 10 0 59904 28800.00000 0 -13314684.628 4084230.730 -21358376.015 10 0 59904 29700.00000 0 -12110044.755 1665532.889 -22378903.256 10 0 59904 30600.00000 0 -11051162.351 -927187.520 -22964411.770 10 0 59904 31500.00000 0 -10173031.755 -3633165.688 -23103641.181 10 0 59904 32400.00000 0 -9499544.885 -6386078.011 -22794007.900 10 0 59904 33300.00000 0 -9042566.511 -9116567.997 -22041645.796 10 0 59904 34200.00000 0 -8801533.121 -11754902.771 -20861278.200 10 0 59904 35100.00000 0 -8763590.801 -14233650.414 -19275924.341 10 0 59904 36000.00000 0 -8904265.038 -16490267.686 -17316446.311 10 0 59904 36900.00000 0 -9188633.097 -18469491.417 -15020945.627 10 0 59904 37800.00000 0 -9572948.711 -20125435.243 -12434021.151 10 0 59904 38700.00000 0 -10006649.957 -21423305.559 -9605902.668 10 0 59904 39600.00000 0 -10434665.261 -22340666.354 -6591476.865 10 0 59904 40500.00000 0 -10799920.046 -22868201.407 -3449224.388 10 0 59904 41400.00000 0 -11045938.190 -23009943.152 -240088.363 10 0 59904 42300.00000 0 -11119428.533 -22782959.693 2973703.756 10 0 59904 43200.00000 0 -10972747.288 -22216513.976 6129842.434 10 0 59904 44100.00000 0 -10566132.420 -21350731.053 9167139.296 10 0 59904 45000.00000 0 -9869615.637 -20234829.788 12026708.205 10 0 59904 45900.00000 0 -8864531.013 -18924993.389 14653101.672 10 0 59904 46800.00000 0 -7544556.146 -17481968.043 16995380.929 10 0 59904 47700.00000 0 -5916241.169 -15968490.134 19008099.367 10 0 59904 48600.00000 0 -3999002.177 -14446649.453 20652180.753 10 0 59904 49500.00000 0 -1824577.803 -12975298.326 21895675.724 10 0 59904 50400.00000 0 564030.039 -11607614.643 22714382.212 10 0 59904 51300.00000 0 3114088.944 -10388920.227 23092318.044 10 0 59904 52200.00000 0 5765080.442 -9354845.413 23022036.599 10 0 59904 53100.00000 0 8450976.882 -8529916.401 22504779.105 10 0 59904 54000.00000 0 11102757.781 -7926624.403 21550460.188 10 0 59904 54900.00000 0 13651062.411 -7545015.604 20177486.144 10 0 59904 55800.00000 0 16028869.241 -7372819.412 18412408.532 10 0 59904 56700.00000 0 18174091.415 -7386109.807 16289418.776 10 0 59904 57600.00000 0 20031980.383 -7550472.307 13849692.513 10 0 59904 58500.00000 0 21557237.327 -7822627.576 11140595.546 10 0 59904 59400.00000 0 22715743.839 -8152443.198 8214766.182 10 0 59904 60300.00000 0 23485839.046 -8485248.409 5129091.378 10 0 59904 61200.00000 0 23859089.129 -8764353.342 1943596.777 10 0 59904 62100.00000 0 23840516.700 -8933665.313 -1279727.439 10 0 59904 63000.00000 0 23448280.266 -8940290.192 -4478141.262 10 0 59904 63900.00000 0 22712817.503 -8737007.363 -7589385.424 10 0 59904 64800.00000 0 21675488.910 -8284511.966 -10552902.770 10 0 59904 65700.00000 0 20386779.758 -7553328.064 -13311025.576 10 0 59904 66600.00000 0 18904137.032 -6525310.464 -15810104.591 10 0 59904 67500.00000 0 17289533.466 -5194670.561 -18001557.193 10 0 59904 68400.00000 0 15606862.145 -3568481.907 -19842813.794 10 0 59904 69300.00000 0 13919272.000 -1666643.491 -21298144.002 10 0 59904 70200.00000 0 12286556.587 478698.352 -22339346.772 10 0 59904 71100.00000 0 10762705.787 2824245.625 -22946291.686 10 0 59904 72000.00000 0 9393722.784 5317116.403 -23107301.567 10 0 59904 72900.00000 0 8215796.996 7896819.473 -22819369.917 10 0 59904 73800.00000 0 7253908.356 10497553.915 -22088209.751 10 0 59904 74700.00000 0 6520920.009 13050738.172 -20928133.708 10 0 59904 75600.00000 0 6017195.836 15487663.899 -19361768.351 10 0 59904 76500.00000 0 5730757.173 17742164.840 -17419608.644 10 0 59904 77400.00000 0 5637970.625 19753190.346 -15139421.510 10 0 59904 78300.00000 0 5704736.646 21467177.337 -12565510.107 10 0 59904 79200.00000 0 5888127.733 22840122.834 -9747853.041 10 0 59904 80100.00000 0 6138406.392 23839271.572 -6741135.103 10 0 59904 81000.00000 0 6401337.183 24444349.320 -3603688.172 10 0 59904 81900.00000 0 6620694.962 24648291.296 -396362.569 10 0 59904 82800.00000 0 6740863.250 24457436.090 2818649.333 10 0 59904 83700.00000 0 6709412.976 23891177.721 5979014.667 10 0 59904 84600.00000 0 6479552.630 22981090.982 9023463.748 10 0 59904 85500.00000 0 6012346.381 21769567.085 11892972.698 10 0 59905 0.00000 0 5278606.394 20308017.053 14531902.230 10 0 59905 900.00000 0 4260378.720 18654717.215 16889072.311 10 0 59905 1800.00000 0 2951960.570 16872388.764 18918748.757 10 0 59905 2700.00000 0 1360403.842 15025609.555 20581527.913 10 0 59905 3600.00000 0 -494516.643 13178167.708 21845099.113 10 0 59905 4500.00000 0 -2580870.854 11390466.238 22684871.999 10 0 59905 5400.00000 0 -4855655.256 9717086.549 23084456.531 10 0 59905 6300.00000 0 -7266345.370 8204611.919 23035986.429 10 0 59905 7200.00000 0 -9752856.332 6889801.407 22540279.545 10 0 59905 8100.00000 0 -12249831.650 5798190.054 21606831.563 10 0 59905 9000.00000 0 -14689166.424 4943173.676 20253642.398 10 0 59905 9900.00000 0 -17002661.138 4325616.484 18506877.743 10 0 59905 10800.00000 0 -19124696.294 3933997.962 16400371.272 10 0 59905 11700.00000 0 -20994816.778 3745092.848 13974976.098 10 0 59905 12600.00000 0 -22560117.992 3725155.659 11277777.198 10 0 59905 13500.00000 0 -23777333.692 3831559.681 8361179.423 10 0 59905 14400.00000 0 -24614537.560 4014820.956 5281888.406 10 0 59905 15300.00000 0 -25052386.456 4220921.150 2099804.290 10 0 59905 16200.00000 0 -25084852.577 4393830.172 -1123149.828 10 0 59905 17100.00000 0 -24719413.253 4478120.586 -4324241.258 10 0 59905 18000.00000 0 -23976690.213 4421561.793 -7441158.138 10 0 59905 18900.00000 0 -22889553.617 4177582.563 -10413231.913 10 0 59905 19800.00000 0 -21501728.967 3707496.194 -13182626.932 10 0 59905 20700.00000 0 -19865966.233 2982392.696 -15695472.927 10 0 59905 21600.00000 0 -18041849.047 1984616.751 -17902917.625 10 0 59905 22500.00000 0 -16093336.879 708767.966 -19762078.591 10 0 59905 23400.00000 0 -14086144.227 -837819.556 -21236875.624 10 0 59905 24300.00000 0 -12085067.240 -2635139.172 -22298727.847 10 0 59905 25200.00000 0 -10151369.981 -4651113.073 -22927102.482 10 0 59905 26100.00000 0 -8340339.543 -6842708.214 -23109905.361 10 0 59905 27000.00000 0 -6699111.649 -9157520.399 -22843706.487 10 0 59905 27900.00000 0 -5264856.530 -11535760.723 -22133797.104 10 0 59905 28800.00000 0 -4063399.577 -13912561.728 -20994077.938 10 0 59905 29700.00000 0 -3108332.766 -16220507.571 -19446781.434 10 0 59905 30600.00000 0 -2400652.174 -18392283.327 -17522033.776 10 0 59905 31500.00000 0 -1928935.021 -20363333.513 -15257265.494 10 0 59905 32400.00000 0 -1670047.013 -22074419.788 -12696482.170 10 0 59905 33300.00000 0 -1590348.743 -23473971.886 -9889409.297 10 0 59905 34200.00000 0 -1647349.154 -24520134.413 -6890527.838 10 0 59905 35100.00000 0 -1791735.441 -25182424.822 -3758018.973 10 0 59905 36000.00000 0 -1969693.092 -25442933.995 -552638.298 10 0 59905 36900.00000 0 -2125417.778 -25297019.851 2663458.810 10 0 59905 37800.00000 0 -2203712.784 -24753465.510 5827918.092 10 0 59905 38700.00000 0 -2152562.189 -23834095.804 8879390.535 10 0 59905 39600.00000 0 -1925571.071 -22572868.405 11758716.540 10 0 59905 40500.00000 0 -1484169.654 -21014477.682 14410067.540 10 0 59905 41400.00000 0 -799488.125 -19212529.503 16782023.334 10 0 59905 42300.00000 0 146177.286 -17227363.006 18828564.662 10 0 59905 43200.00000 0 1358369.453 -15123609.787 20509962.300 10 0 59905 44100.00000 0 2829989.609 -12967591.733 21793545.946 10 0 59905 45000.00000 0 4541352.253 -10824665.342 22654338.355 10 0 59905 45900.00000 0 6460775.094 -8756622.442 23075542.706 10 0 59905 46800.00000 0 8545681.248 -6819254.857 23048873.822 10 0 59905 47700.00000 0 10744169.550 -5060183.881 22574726.565 10 0 59905 48600.00000 0 12996989.339 -3517044.448 21662177.704 10 0 59905 49500.00000 0 15239839.106 -2216099.302 20328820.456 10 0 59905 50400.00000 0 17405894.436 -1171340.787 18600433.969 10 0 59905 51300.00000 0 19428460.816 -384117.609 16510493.148 10 0 59905 52200.00000 0 21243641.118 156697.974 14099527.209 10 0 59905 53100.00000 0 22792906.306 474009.646 11414338.593 10 0 59905 54000.00000 0 24025461.538 601292.978 8507096.641 10 0 59905 54900.00000 0 24900307.884 580938.932 5434323.281 10 0 59905 55800.00000 0 25387912.320 462215.473 2255790.498 10 0 59905 56700.00000 0 25471414.993 298934.299 -966648.590 10 0 59905 57600.00000 0 25147322.216 146922.558 -4170271.628 10 0 59905 58500.00000 0 24425655.426 61407.877 -7292717.209 10 0 59905 59400.00000 0 23329549.542 94428.944 -10273208.332 10 0 59905 60300.00000 0 21894317.650 292382.793 -13053744.197 10 0 59905 61200.00000 0 20166021.641 693814.042 -15580236.038 10 0 59905 62100.00000 0 18199609.486 1327540.890 -17803564.178 10 0 59905 63000.00000 0 16056697.974 2211198.173 -19680535.268 10 0 59905 63900.00000 0 13803094.672 3350259.757 -21174720.951 10 0 59905 64800.00000 0 11506163.409 4737582.134 -22257161.887 10 0 59905 65700.00000 0 9232143.791 6353488.865 -22906924.029 10 0 59905 66600.00000 0 7043536.760 8166392.597 -23111497.012 10 0 59905 67500.00000 0 4996664.858 10133928.823 -22867027.819 10 0 59905 68400.00000 0 3139508.114 12204554.170 -22178386.048 10 0 59905 69300.00000 0 1509904.607 14319542.539 -21059060.272 10 0 59905 70200.00000 0 134189.168 16415296.067 -19530888.178 10 0 59905 71100.00000 0 -973674.786 18425874.765 -17623626.153 10 0 59905 72000.00000 0 -1812435.892 20285639.677 -15374366.935 10 0 59905 72900.00000 0 -2393355.671 21931899.705 -12826816.757 10 0 59905 73800.00000 0 -2739479.721 23307452.190 -10030445.899 10 0 59905 74700.00000 0 -2884411.460 24362911.579 -7039529.091 10 0 59905 75600.00000 0 -2870641.312 25058729.471 -3912094.166 10 0 59905 76500.00000 0 -2747502.746 25366822.041 -708799.146 10 0 59905 77400.00000 0 -2568842.028 25271737.160 2508240.559 10 0 59905 78300.00000 0 -2390500.459 24771312.739 5676652.334 10 0 59905 79200.00000 0 -2267715.646 23876798.925 8735010.856 10 0 59905 80100.00000 0 -2252551.588 22612439.088 11624023.752 10 0 59905 81000.00000 0 -2391466.142 21014527.062 14287675.745 10 0 59905 81900.00000 0 -2723118.592 19129979.679 16674309.571 10 0 59905 82800.00000 0 -3276509.962 17014483.843 18737623.046 10 0 59905 83700.00000 0 -4069534.868 14730294.796 20437563.535 10 0 59905 84600.00000 0 -5108006.565 12343776.584 21741102.965 10 0 59905 85500.00000 0 -6385197.176 9922786.378 22622878.730 99